Regional Weather Roundup
Issued by NWS

Home | Current Version | Previous Version | Graphics & Text | Print | Product List | Glossary Off
Versions: 1 2 3 4 5 6 7 8 9 10 11 12 13 14 15 16 17 18 19 20 21 22 23 24 25 26 27 28 29 30 31 32 33 34 35 36 37 38 39 40 41 42 43 44 45 46 47 48 49 50

000
ASUS43 KMKX 201400
RWRWI

WISCONSIN REGIONAL WEATHER ROUNDUP
NATIONAL WEATHER SERVICE MILWAUKEE/SULLIVAN WI
800 AM CST MON FEB 20 2017

NOTE: "FAIR" INDICATES FEW OR NO CLOUDS BELOW 12,000 FEET WITH NO
SIGNIFICANT WEATHER AND/OR OBSTRUCTIONS TO VISIBILITY.

WIZ001-002-006>008-014>016-023>028-201500-
NORTHWEST WISCONSIN

CITY           SKY/WX    TMP DP  RH WIND       PRES   REMARKS
SUPERIOR ARPT  CLOUDY    36  34  93 E12       29.90F WCI  27
ASHLAND        CLOUDY    46  35  65 VRB3      29.94R
HAYWARD        CLOUDY    47  37  68 S10G18    29.92R
SIREN          CLOUDY    48  38  69 SE8       29.86R
CUMBERLAND     CLOUDY    41  34  75 SE10      29.89F
RICE LAKE      CLOUDY    44  36  74 SE20      29.91F
CHETEK         CLOUDY    42  36  79 SE9       29.92F
LADYSMITH      CLOUDY    44  36  73 E9        29.97S
EAU CLAIRE     NOT AVBL
MENOMONIE      CLOUDY    43  38  81 E6        29.89S
NEW RICHMOND   CLOUDY    46  39  77 SE8       29.86F
OSCEOLA        CLOUDY    48  41  76 SE9       29.87S
$$

WIZ003>005-009-010-017-018-201500-
NORTH CENTRAL WISCONSIN

CITY           SKY/WX    TMP DP  RH WIND       PRES   REMARKS
MANITOWISH WTR CLOUDY    41  31  66 SE8       30.01F
ARBOR VITAE    CLOUDY    42  31  66 SE12G18   30.02F
WOODRUFF       CLOUDY    42  31  66 SE12G18   30.02F
RHINELANDER    CLOUDY    39  31  72 SE10      30.06F WCI  32
EAGLE RIVER    CLOUDY    38  27  65 SE8       30.06S WCI  32
LAND O LAKES   CLOUDY    40  28  63 SE12      30.07F WCI  33
PHILLIPS       CLOUDY    41  33  74 SE8       29.98S
TOMAHAWK       CLOUDY    39  30  68 SE5       30.04S
MEDFORD        CLOUDY    39  32  76 SE9       30.01R WCI  33
MERRILL        NOT AVBL
$$

WIZ029-030-035-036-043>047-201500-
CENTRAL WISCONSIN

CITY           SKY/WX    TMP DP  RH WIND       PRES   REMARKS
WAUSAU         CLOUDY    38  30  73 SE10      30.05S WCI  31
MOSINEE        NOT AVBL
MARSHFIELD     CLOUDY    40  33  76 E10       30.00F WCI  33
STEVENS POINT  CLOUDY    36  29  76 E7        30.07S WCI  31
WAUPACA        CLOUDY    38  32  78 CALM      30.09F
WAUTOMA        CLOUDY    36  32  85 CALM      30.07F
WISC RAPIDS    CLOUDY    42  35  76 E7        30.04F
CAMP DOUGLAS   NOT AVBL
$$

WIZ011>013-019>022-031-037>040-048>050-201500-
NORTHEAST WISCONSIN

CITY           SKY/WX    TMP DP  RH WIND       PRES   REMARKS
ANTIGO         CLOUDY    35  30  80 SE13      30.09F WCI  27
SHAWANO        CLOUDY    35  32  90 NE5       30.14R WCI  31
OCONTO         CLOUDY    36  32  87 E3        30.15S
STURGEON BAY   NOT AVBL
GREEN BAY      MOSUNNY   42  34  73 SE7       30.13F
MANITOWOC      NOT AVBL
APPLETON       PTSUNNY   39  27  60 E6        30.09R WCI  35
CLINTONVILLE   CLOUDY    36  32  87 NE6       30.11S WCI  31
OSHKOSH        CLOUDY    42  33  70 SE7       30.09S
$$

WIZ032>034-041-042-053>061-201500-
SOUTHWEST WISCONSIN

CITY           SKY/WX    TMP DP  RH WIND       PRES   REMARKS
LA CROSSE      CLOUDY    54  46  74 SE10      29.93F
SPARTA         CLOUDY    51  46  84 E9        29.97F
VIROQUA        CLOUDY    47  45  90 SE16      29.95F
BOSCOBEL       CLOUDY    50  44  80 VRB3      29.99F
PRAIRIE DU CHI CLOUDY    49  43  82 E9G16     29.97S HAZE
PLATTEVILLE      N/A     43  43 100 E14       30.00F
$$

WIZ056-057-062-063-064-067-068-201500-
SOUTH CENTRAL WISCONSIN

CITY           SKY/WX    TMP DP  RH WIND       PRES   REMARKS
REEDSBURG      PTSUNNY   49  46  88 E3        30.02F
BARABOO/DELLS  PTSUNNY   47  42  81 SE6       30.03F
LONE ROCK      NOT AVBL
MINERAL POINT  MOSUNNY   46  46 100 SE13      30.01F FOG
MADISON        CLOUDY    45  41  86 SE6       30.06S FOG
MIDDLETON      CLOUDY    46  43  90 SE6       30.05F
WATERTOWN      MOSUNNY   42  39  91 E9        30.09F
MONROE         PTSUNNY   45  43  93 SE10      30.05S FOG
JANESVILLE     MOSUNNY   46  45  93 SE8       30.08R FOG
$$

WIZ051-052-058>065-066-070>072-201500-
SOUTHEAST WISCONSIN

CITY           SKY/WX    TMP DP  RH WIND       PRES   REMARKS
MILWAUKEE      CLOUDY    43  36  76 SE8       30.14S
WAUKESHA       MOSUNNY   36  34  93 CALM      30.13S
MILWAUKEE/TIMM SUNNY     36  30  80 CALM      30.15R
RACINE         MOSUNNY   43  36  76 S7        30.16S
KENOSHA        MOSUNNY   46  42  86 SE8       30.14S FOG
FOND DU LAC    MOSUNNY   43  34  70 SE12      30.10S
SHEBOYGAN      CLOUDY    40  32  73 SE5       30.15R
WEST BEND      MOSUNNY   32  32 100 CALM      30.14S
JUNEAU         MOSUNNY   42  38  87 E10       30.10S
$$

LSZ147-162-201500-
LAKE SUPERIOR

STATION/POSITION TIME  TEMP    WIND        PRES    WAVE
                       AIR SEA DIR/SP/G            HT/PER
                 (UTC) (F)     (DEG/KT/KT) (MB)    (FT/S)
DEVILS ISLAND    1300   47     160/  7/  9 1014.2S
PORT WING        1340   35      20/  2/  3 1013.2R
SAXON HARBOR     1330   48     170/ 10/ 17 1013.2F
$$

LMZ867-665-643>646-201500-
LAKE MICHIGAN

STATION/POSITION TIME  TEMP    WIND        PRES    WAVE
                       AIR SEA DIR/SP/G            HT/PER
                 (UTC) (F)     (DEG/KT/KT) (MB)    (FT/S)
CHAMBERS ISLAND  1330   37      90/  4/  6 1021.3R
NORTHPORT PIER   1340   36     140/  6/  8 1022.4S
SISTER BAY       1305   37     120/ 10/ 14   N/A
ALGOMA LAKESHORE 1325             CALM       N/A
KEWAUNEE LAKESHO 1330   38     120/  1/  3 1021.2R
SHEBOYGAN LAKESH 1300   39     150/  6/  6 1021.3R
PORT WASHINGTON  1330   41     160/  2/  3 1021.7S
MILWAUKEE LAKESH 1330   39      80/  2/  3   N/A
KENOSHA   LAKESH 1300   41     170/  7/  8 1020.7
$$

TC  - TEMPERATURE IN CELSIUS
VSB - VISIBILITY IN STATUTE MILES
WCI - WIND CHILL INDEX
HX  - HEAT INDEX





USA.gov is the U.S. government's official web portal to all federal, state and local government web resources and services.